| time (UTC) | temp C | wind direction | speed KPH | gust KPH | rain 1hr cm | rain 24hr cm | rain mn cm | humidity % | barometer mb |
| 20260504215636 | 22 | 267 | 0.0 | 0.0 | 0.00 | 0.00 | 0.00 | 46 | 1004.9 |
| 20260504213528 | 22 | 198 | 0.0 | 0.0 | 0.00 | 0.00 | 0.00 | 47 | 1005.1 |
| 20260504212553 | 22 | 192 | 1.6 | 16.1 | 0.00 | 0.00 | 0.00 | 48 | 1005.0 |
| 20260504211522 | 22 | 196 | 1.6 | 11.3 | 0.00 | 0.00 | 0.00 | 46 | 1005.0 |
| 20260504210547 | 22 | 223 | 0.0 | 0.0 | 0.00 | 0.00 | 0.00 | 49 | 1004.7 |
| 20260504205528 | 22 | 227 | 1.6 | 12.9 | 0.00 | 0.00 | 0.00 | 48 | 1005.2 |
| 20260504204458 | 22 | 274 | 0.0 | 22.5 | 0.00 | 0.00 | 0.00 | 48 | 1005.6 |
| 20260504203517 | 22 | 224 | 3.2 | 22.5 | 0.00 | 0.00 | 0.00 | 47 | 1005.9 |
| 20260504202456 | 22 | 189 | 0.0 | 14.5 | 0.00 | 0.00 | 0.00 | 47 | 1005.7 |
| 20260504201427 | 21 | 272 | 0.0 | 19.3 | 0.00 | 0.00 | 0.00 | 48 | 1005.7 |
| 20260504200442 | 21 | 250 | 0.0 | 0.0 | 0.00 | 0.00 | 0.00 | 49 | 1005.6 |
| 20260504195433 | 21 | 223 | 0.0 | 0.0 | 0.00 | 0.00 | 0.00 | 52 | 1005.9 |
| 20260504194419 | 21 | 215 | 0.0 | 0.0 | 0.00 | 0.00 | 0.00 | 51 | 1006.1 |
| 20260504193423 | 21 | 207 | 1.6 | 17.7 | 0.00 | 0.00 | 0.00 | 50 | 1006.0 |
| 20260504192425 | 21 | 196 | 3.2 | 24.1 | 0.00 | 0.00 | 0.00 | 51 | 1006.5 |
| 20260504190316 | 22 | 216 | 4.8 | 24.1 | 0.00 | 0.00 | 0.00 | 48 | 1006.6 |
| 20260504185316 | 22 | 214 | 0.0 | 0.0 | 0.00 | 0.00 | 0.00 | 47 | 1006.8 |
| 20260504183200 | 22 | 260 | 0.0 | 3.2 | 0.00 | 0.00 | 0.00 | 46 | 1006.4 |
| 20260504182144 | 22 | 240 | 1.6 | 0.0 | 0.00 | 0.00 | 0.00 | 47 | 1006.4 |
| 20260504181113 | 22 | 231 | 1.6 | 25.7 | 0.00 | 0.00 | 0.00 | 44 | 1006.3 |
| 20260504180123 | 22 | 221 | 3.2 | 25.7 | 0.00 | 0.00 | 0.00 | 45 | 1006.3 |
| 20260504175122 | 22 | 195 | 0.0 | 11.3 | 0.00 | 0.00 | 0.00 | 45 | 1006.2 |
| 20260504174059 | 22 | 296 | 3.2 | 22.5 | 0.00 | 0.00 | 0.00 | 43 | 1006.3 |
| 20260504173117 | 22 | 250 | 1.6 | 17.7 | 0.00 | 0.00 | 0.00 | 44 | 1006.3 |
| 20260504172045 | 22 | 209 | 0.0 | 0.0 | 0.00 | 0.00 | 0.00 | 45 | 1006.2 |
| 20260504171030 | 22 | 224 | 0.0 | 6.4 | 0.00 | 0.00 | 0.00 | 45 | 1006.3 |
| 20260504150453 | 18 | 161 | 0.0 | 0.0 | 0.00 | 0.00 | 0.00 | 54 | 1007.5 |
| 20260504141152 | 17 | 248 | 0.0 | 0.0 | 0.00 | 0.00 | 0.00 | 56 | 1007.9 |
| 20260504140204 | 16 | 274 | 0.0 | 0.0 | 0.00 | 0.00 | 0.00 | 57 | 1008.0 |
| 20260504110705 | 10 | 204 | 0.0 | 0.0 | 0.00 | 0.00 | 0.00 | 66 | 1008.2 |
| 20260504081542 | 10 | 194 | 0.0 | 1.6 | 0.00 | 0.00 | 0.00 | 62 | 1009.5 |
| 20260504080556 | 10 | 258 | 0.0 | 0.0 | 0.00 | 0.00 | 0.00 | 61 | 1009.6 |
| 20260504050603 | 12 | 217 | 0.0 | 0.0 | 0.00 | 0.00 | 0.00 | 55 | 1011.1 |
| 20260504044510 | 12 | 123 | 0.0 | 0.0 | 0.00 | 0.00 | 0.00 | 54 | 1011.4 |
| 20260504043442 | 12 | 173 | 0.0 | 0.0 | 0.00 | 0.00 | 0.00 | 54 | 1011.4 |
| 20260504042457 | 12 | 127 | 0.0 | 0.0 | 0.00 | 0.00 | 0.00 | 54 | 1011.5 |
| 20260504041427 | 12 | 115 | 0.0 | 0.0 | 0.00 | 0.00 | 0.00 | 54 | 1011.7 |
| 20260504035214 | 12 | 112 | 0.0 | 0.0 | 0.00 | 0.00 | 0.00 | 57 | 1011.9 |
| 20260504034203 | 12 | 111 | 0.0 | 0.0 | 0.00 | 0.00 | 0.00 | 58 | 1011.9 |
| 20260504033202 | 11 | 111 | 0.0 | 0.0 | 0.00 | 0.00 | 0.00 | 57 | 1012.0 |
| 20260504032202 | 11 | 103 | 0.0 | 0.0 | 0.00 | 0.00 | 0.00 | 58 | 1012.2 |
| 20260504031220 | 11 | 101 | 0.0 | 0.0 | 0.00 | 0.00 | 0.00 | 59 | 1012.2 |
| 20260504030203 | 11 | 97 | 0.0 | 0.0 | 0.00 | 0.00 | 0.00 | 61 | 1012.3 |
| 20260504025159 | 11 | 97 | 0.0 | 0.0 | 0.00 | 0.00 | 0.00 | 62 | 1012.5 |
| 20260504024139 | 11 | 137 | 0.0 | 0.0 | 0.00 | 0.00 | 0.00 | 63 | 1012.5 |
| 20260504023140 | 11 | 120 | 0.0 | 0.0 | 0.00 | 0.00 | 0.00 | 64 | 1012.6 |
| 20260504022132 | 11 | 121 | 0.0 | 0.0 | 0.00 | 0.00 | 0.00 | 64 | 1012.5 |
| 20260504021149 | 11 | 96 | 0.0 | 0.0 | 0.00 | 0.00 | 0.00 | 65 | 1012.6 |
| 20260504020158 | 11 | 108 | 0.0 | 0.0 | 0.00 | 0.00 | 0.00 | 65 | 1012.7 |
| 20260504013959 | 10 | 119 | 0.0 | 0.0 | 0.00 | 0.00 | 0.00 | 66 | 1012.6 |
| 20260504013008 | 10 | 153 | 0.0 | 0.0 | 0.00 | 0.00 | 0.00 | 66 | 1012.6 |
| 20260504010817 | 10 | 120 | 0.0 | 0.0 | 0.00 | 0.00 | 0.00 | 66 | 1012.7 |
| 20260504004639 | 10 | 63 | 0.0 | 0.0 | 0.00 | 0.00 | 0.00 | 67 | 1012.8 |
| 20260504003646 | 10 | 61 | 0.0 | 0.0 | 0.00 | 0.00 | 0.00 | 69 | 1012.6 |
| 20260504002642 | 10 | 51 | 0.0 | 0.0 | 0.00 | 0.00 | 0.00 | 70 | 1012.7 |
| 20260504001624 | 10 | 51 | 0.0 | 0.0 | 0.00 | 0.00 | 0.00 | 68 | 1012.8 |
| 20260504000551 | 10 | 53 | 0.0 | 0.0 | 0.00 | 0.00 | 0.00 | 68 | 1012.7 |
| 20260503235542 | 10 | 54 | 0.0 | 0.0 | 0.00 | 0.00 | 0.00 | 67 | 1012.6 |
| 20260503234533 | 10 | 78 | 0.0 | 0.0 | 0.00 | 0.00 | 0.00 | 66 | 1012.6 |
| 20260503233517 | 10 | 136 | 0.0 | 0.0 | 0.00 | 0.00 | 0.00 | 66 | 1012.5 |
| 20260503232514 | 10 | 144 | 0.0 | 0.0 | 0.00 | 0.00 | 0.00 | 67 | 1012.8 |
| 20260503231515 | 10 | 145 | 0.0 | 0.0 | 0.00 | 0.00 | 0.00 | 67 | 1012.9 |
| 20260503224251 | 11 | 275 | 0.0 | 0.0 | 0.00 | 0.00 | 0.00 | 69 | 1013.7 |
| 20260503223302 | 11 | 280 | 0.0 | 0.0 | 0.00 | 0.00 | 0.00 | 70 | 1014.1 |
| 20260503221103 | 11 | 280 | 0.0 | 0.0 | 0.00 | 0.00 | 0.00 | 66 | 1014.6 |